EW7890 Weather Reports


Display with metric or nautical units.
time (UTC)temp
F
wind
direction
speed
MPH
gust
MPH
rain 1hr
in
rain 24hr
in
rain mn
in
humidity
%
barometer
mb
20181121204636 69 348 0.0 0.0 0.00 0.07 0.04 91 1017.1
20181121203202 70 349 0.0 0.0 0.00 0.07 0.04 90 1017.3
20181121201709 70 349 0.0 0.0 0.00 0.07 0.04 90 1017.2
20181121200204 70 348 0.0 0.0 0.00 0.07 0.04 90 1016.9
20181121194738 71 348 0.0 0.0 0.00 0.07 0.04 90 1016.7
20181121193327 71 348 0.0 0.0 0.00 0.07 0.04 91 1016.6
20181121191710 71 348 0.0 0.0 0.00 0.07 0.04 90 1016.6
20181121190208 71 348 0.0 0.0 0.00 0.07 0.04 90 1016.6
20181121184634 70 348 0.0 0.0 0.01 0.10 0.04 90 1016.6
20181121183147 70 348 0.0 0.0 0.01 0.10 0.04 90 1016.4
20181121181748 70 348 0.0 0.0 0.01 0.10 0.04 90 1016.7
20181121180114 70 32 0.0 1.0 0.01 0.10 0.04 89 1016.9
20181121174623 70 33 0.0 0.0 0.00 0.13 0.03 89 1016.6
20181121173209 70 33 0.0 1.0 0.00 0.13 0.03 88 1016.8
20181121171631 71 36 0.0 1.0 0.01 0.13 0.03 88 1016.7
20181121170226 70 301 0.0 0.0 0.01 0.13 0.03 88 1017.2
20181121164654 70 300 0.0 1.0 0.02 0.13 0.03 88 1017.6
20181121163131 70 314 0.0 0.0 0.02 0.13 0.03 88 1017.6
20181121161625 71 315 0.0 1.0 0.01 0.12 0.02 87 1017.6
20181121160131 71 332 0.0 2.0 0.01 0.12 0.02 84 1018.0
20181121154627 72 312 0.0 1.0 0.00 0.11 0.01 82 1018.3
20181121153057 72 318 0.0 1.0 0.00 0.11 0.01 82 1018.3
20181121151625 73 302 0.0 2.0 0.00 0.11 0.01 83 1018.2
20181121150120 73 326 0.0 4.0 0.00 0.11 0.01 82 1018.4
20181121144620 75 13 0.0 1.0 0.00 0.11 0.01 80 1018.4
20181121143048 75 305 0.0 1.0 0.00 0.11 0.01 80 1018.1
20181121141556 74 72 0.0 1.0 0.00 0.11 0.01 79 1018.1
20181121140046 74 321 0.0 1.0 0.00 0.11 0.01 80 1018.1
20181121134543 74 345 0.0 3.0 0.00 0.11 0.01 79 1017.7
20181121133034 74 351 0.0 3.0 0.00 0.11 0.01 82 1017.6
20181121131535 73 301 0.0 4.0 0.00 0.11 0.01 81 1017.5
20181121130035 73 272 0.0 2.0 0.00 0.11 0.01 80 1017.4
20181121124540 72 37 0.0 2.0 0.00 0.11 0.01 80 1017.4
20181121123031 72 12 0.0 2.0 0.00 0.11 0.01 80 1017.2
20181121121526 71 286 0.0 1.0 0.00 0.11 0.01 82 1017.2
20181121120020 71 312 0.0 1.0 0.00 0.11 0.01 84 1016.8
20181121114531 71 302 0.0 1.0 0.00 0.11 0.01 83 1016.6
20181121113022 71 314 0.0 1.0 0.00 0.11 0.01 83 1016.6
20181121111510 70 298 0.0 2.0 0.00 0.11 0.01 81 1016.7
20181121110004 70 301 0.0 1.0 0.00 0.11 0.01 82 1016.4
20181121104504 71 338 0.0 5.0 0.00 0.11 0.01 81 1016.2
20181121103003 71 342 0.0 3.0 0.00 0.11 0.01 81 1016.1
20181121101501 71 22 1.0 4.0 0.00 0.11 0.01 82 1016.2
20181121100137 71 229 0.0 2.0 0.00 0.11 0.01 84 1015.8
20181121094617 71 320 0.0 2.0 0.00 0.11 0.01 85 1015.6
20181121093153 71 331 0.0 4.0 0.00 0.11 0.01 85 1015.5
20181121091643 70 281 0.0 1.0 0.00 0.11 0.01 86 1015.2
20181121090133 71 342 0.0 4.0 0.00 0.11 0.01 87 1015.1
20181121084637 70 313 1.0 4.0 0.00 0.11 0.01 88 1014.9
20181121083144 71 279 0.0 6.0 0.01 0.11 0.01 89 1014.8
20181121081633 71 342 0.0 3.0 0.01 0.11 0.01 89 1014.8
20181121080137 71 68 0.0 5.0 0.01 0.11 0.01 90 1014.8
20181121074604 71 4 0.0 4.0 0.01 0.11 0.01 91 1014.8
20181121073132 71 320 0.0 3.0 0.00 0.10 0.00 91 1014.7
20181121071619 71 307 0.0 1.0 0.00 0.10 0.00 91 1014.8
20181121070051 71 351 0.0 2.0 0.00 0.10 0.00 91 1014.8
20181121064612 71 314 0.0 1.0 0.00 0.10 0.00 91 1014.7
20181121063144 70 226 0.0 2.0 0.00 0.10 0.00 92 1014.6
20181121061640 70 55 0.0 3.0 0.00 0.10 0.00 93 1014.5
20181121060124 70 335 0.0 3.0 0.00 0.10 0.00 94 1014.3
20181121054648 70 43 0.0 1.0 0.00 0.10 0.00 94 1014.4
20181121053139 70 314 0.0 0.0 0.00 0.10 0.00 94 1014.4
20181121051610 70 296 0.0 0.0 0.00 0.10 0.00 94 1014.4
20181121050119 70 288 0.0 1.0 0.00 0.10 0.00 94 1014.3
20181121044626 70 303 0.0 1.0 0.00 0.10 0.00 94 1014.3
20181121043108 71 331 0.0 0.0 0.00 0.10 0.00 94 1014.3
20181121041609 71 352 0.0 1.0 0.00 0.10 0.00 94 1014.3
20181121040038 71 326 0.0 0.0 0.00 0.10 0.10 94 1014.2
20181121034610 71 344 0.0 1.0 0.00 0.10 0.10 94 1014.2
20181121031541 71 333 0.0 1.0 0.02 0.10 0.10 94 1013.7
20181121030115 71 293 0.0 2.0 0.03 0.10 0.10 94 1014.1
20181121024538 72 291 0.0 3.0 0.03 0.10 0.10 93 1014.0
20181121023038 73 250 0.0 4.0 0.02 0.09 0.09 94 1014.0
20181121021524 73 177 0.0 2.0 0.01 0.08 0.08 94 1014.0
20181121020031 73 117 0.0 4.0 0.00 0.07 0.07 94 1014.0
20181121014541 73 116 0.0 2.0 0.00 0.07 0.07 94 1013.8
20181121013039 73 199 0.0 3.0 0.00 0.07 0.07 94 1013.7
20181121011603 72 148 0.0 2.0 0.00 0.07 0.07 94 1013.7
20181121010042 72 189 0.0 2.0 0.00 0.07 0.07 94 1014.0
20181121004533 72 120 0.0 2.0 0.00 0.07 0.07 94 1014.0
20181121003040 71 133 0.0 1.0 0.00 0.07 0.07 94 1013.9
20181121001538 71 284 0.0 1.0 0.00 0.07 0.07 93 1013.9
20181121000041 72 97 0.0 1.0 0.00 0.07 0.07 93 1014.2
20181120234554 72 173 0.0 1.0 0.00 0.07 0.07 93 1014.1
20181120233058 73 183 0.0 1.0 0.00 0.07 0.07 93 1014.2
20181120231542 73 120 0.0 0.0 0.00 0.07 0.07 93 1014.3
20181120230035 73 113 0.0 1.0 0.00 0.07 0.07 93 1014.3
20181120224530 72 113 0.0 1.0 0.00 0.07 0.07 93 1014.3
20181120223022 72 141 0.0 1.0 0.00 0.07 0.07 93 1014.1
20181120221521 72 143 0.0 1.0 0.00 0.07 0.07 93 1014.1
20181120220014 72 153 0.0 2.0 0.00 0.07 0.07 93 1014.3
20181120214542 72 150 0.0 3.0 0.00 0.07 0.07 93 1014.2
20181120213014 72 118 0.0 4.0 0.00 0.07 0.07 93 1014.2
20181120211513 72 248 0.0 4.0 0.00 0.07 0.07 93 1013.9
20181120210052 73 110 0.0 6.0 0.00 0.07 0.07 93 1014.2